[[{"header":{"parameterUnit":"m.s-1","parameterCategory":1,"la1":30.2991,"la2":30.254,"lo1":-89.0895,"lo2":-89.0444,"dy":0.0017,"dx":0.0017,"nx":28,"ny":28,"refTime":"2025-03-03T09:00:00:Z","depth":0,"parameterNumber":2,"parameterNumberName":"U-component_of_WINDS"},"data":[0,0,0,0,0,0,0,0,0,0,0,0,0,0,0,0,0,0,0,0,0,0,0,0,0,0,0,0,0,0,0,0,0,0,0,0,0,0,0,0,0,0,0,0,0,0,0,0,0,0,0,0,0,0,0,0,0,0,-4.6527,-4.6527,0,-4.6546,-4.6546,-4.6546,-4.6388,-4.6384,-4.6379,-4.6375,-4.6396,-4.6401,-4.6406,0,0,0,0,0,0,0,0,0,0,0,0,0,-4.6355,-4.6359,-4.6527,-4.6527,-4.6527,-4.6546,-4.6546,-4.6546,-4.6389,-4.6384,-4.6378,-4.6373,-4.6395,-4.64,-4.6406,0,0,0,0,0,0,0,0,0,0,0,0,0,-4.6407,-4.636,-4.6527,-4.6451,-4.6444,-4.6546,-4.6546,-4.6546,-4.639,-4.6384,-4.6377,-4.6371,-4.6393,-4.64,-4.6407,-4.6582,0,0,-4.6428,-4.6431,0,0,0,0,0,0,0,0,-4.6404,-4.6414,-4.6462,-4.6456,-4.6449,-4.6458,-4.6493,-4.6558,-4.6392,-4.6411,-4.6375,-4.6368,-4.6422,-4.6427,-4.6445,-4.6583,-4.6584,-4.6429,-4.6433,-4.6436,-4.6438,0,0,0,0,0,0,0,-4.6401,-4.6412,-4.6534,-4.6463,-4.6455,-4.6416,-4.6416,-4.6505,-4.6454,-4.6409,-4.6397,-4.6402,-4.6418,-4.6438,-4.6444,-4.6584,-4.6429,-4.6435,-4.6439,-4.6442,-4.6866,-4.6872,0,0,0,0,0,0,-4.6407,-4.641,-4.6534,-4.6535,-4.641,-4.6425,-4.6425,-4.6462,-4.6452,-4.6444,-4.6407,-4.6394,-4.643,-4.6436,-4.6444,-4.6647,-4.6436,-4.6443,-4.6447,-4.6859,-4.6867,-4.6875,0,0,0,0,0,0,-4.6404,-4.642,-4.6533,-4.6469,-4.6481,-4.6435,-4.6477,-4.6466,-4.6486,-4.6451,-4.6441,-4.6438,-4.6425,-4.6434,-4.6548,-4.6646,-4.6446,-4.6452,-4.685,-4.6861,-4.6871,-4.7057,0,0,0,0,0,0,-4.64,-4.642,-4.6486,-4.6472,-4.6485,-4.6638,-4.6483,-4.6471,-4.6498,-4.6481,-4.6477,-4.647,-4.642,-4.6539,-4.6555,-4.6652,-4.6458,-4.6841,-4.6855,-4.6868,-4.7042,-4.7073,-4.7099,0,0,0,0,0,-4.6395,-4.6539,-4.649,-4.6506,-4.6567,-4.6644,-4.6651,-4.659,-4.6507,-4.6573,-4.655,-4.647,-4.6633,-4.6552,-4.6569,-4.667,-4.6835,-4.6851,-4.6867,-4.7029,-4.7067,-4.7098,0,0,0,0,0,0,-4.6567,-4.6536,-4.6482,-4.6626,-4.6638,-4.6617,-4.6699,-4.6632,-4.6669,-4.6652,-4.6576,-4.6576,-4.6703,-4.6697,-4.6608,-4.6838,-4.6719,-4.6739,-4.6837,-4.6872,-4.69,-4.6899,-4.6463,0,0,0,0,0,-4.6622,-4.6686,-4.6655,-4.6785,-4.6794,-4.6746,-4.6777,-4.6729,-4.6739,-4.6744,-4.6729,-4.6743,-4.6796,-4.6834,-4.6882,-4.704,-4.7036,-4.7117,-4.7146,-4.7169,-4.7188,-4.727,-4.7305,-4.6927,-4.6927,-4.6926,0,0,-4.6736,-4.6726,-4.6772,-4.682,-4.6824,-4.6893,-4.6752,-4.6831,-4.6881,-4.6756,-4.6863,-4.6853,-4.6862,-4.6999,-4.7059,-4.6999,-4.7291,-4.719,-4.7209,-4.7214,-4.729,-4.7326,-4.7358,-4.6938,-4.6936,-4.6934,0,0,-4.6978,-4.6978,-4.7085,-4.7092,-4.7099,-4.7066,-4.7092,-4.708,-4.7068,-4.7173,-4.7081,-4.7139,-4.7234,-4.7244,-4.7262,-4.7506,-4.7434,-4.7524,-4.7673,-4.7754,-4.7784,-4.781,-4.7896,-4.7928,-4.7542,-4.7543,-4.7543,0,-4.7119,-4.7218,-4.7149,-4.7234,-4.7257,-4.7146,-4.7254,-4.7264,-4.7288,-4.7306,-4.7238,-4.7353,-4.7352,-4.7489,-4.7548,-4.7567,-4.7593,-4.7524,-4.7785,-4.781,-4.7834,-4.7915,-4.7948,-4.7554,-4.7552,-4.7551,-4.755,0,-4.7391,-4.7461,-4.7547,-4.7571,-4.7604,-4.77,-4.7645,-4.7686,-4.7635,-4.7609,-4.7717,-4.7711,-4.7755,-4.7784,-4.7735,-4.7914,-4.7876,-4.7798,-4.7677,-4.7882,-4.7957,-4.7988,-4.7569,-4.7565,-4.7562,-4.7559,0,0,-4.7745,-4.7727,-4.776,-4.7768,-4.7767,-4.7821,-4.7911,-4.7953,-4.799,-4.8009,-4.8083,-4.8164,-4.8091,-4.8111,-4.8062,-4.8134,-4.8326,-4.8046,-4.8045,-4.8098,-4.8522,-4.8581,-4.8618,-4.8278,-4.8283,-4.8288,-4.8521,0,-4.798,-4.8133,-4.8073,-4.8231,-4.8294,-4.8189,-4.8267,-4.8275,-4.8253,-4.8303,-4.8277,-4.8336,-4.8236,-4.8247,-4.8313,-4.8289,-4.841,-4.8271,-4.8346,-4.8349,-4.8347,-4.8657,-4.872,-4.8941,-4.855,-4.8555,-4.8558,0,-4.8277,-4.8306,-4.8471,-4.8457,-4.8481,-4.8553,-4.8585,-4.8635,-4.8641,-4.862,-4.8642,-4.8576,-4.8664,-4.8543,-4.8662,-4.8569,-4.8595,-4.8588,-4.8595,-4.86,-4.8467,-4.8671,-4.9009,-4.9043,-4.8604,-4.86,-4.8597,0,-4.8517,-4.8599,-4.8707,-4.8718,-4.8705,-4.8757,-4.8754,-4.8754,-4.8782,-4.8811,-4.8828,-4.8867,-4.8889,-4.892,-4.8867,-4.8784,-4.8993,-4.8868,-4.8978,-4.8979,-4.9027,-4.9025,-4.9375,-4.9045,-4.9044,-4.9043,-4.9043,0,-4.8787,-4.8892,-4.8814,-4.8882,-4.8995,-4.8924,-4.9038,-4.9024,-4.9024,-4.9086,-4.8997,-4.9057,-4.8983,-4.9036,-4.8995,-4.9099,-4.911,-4.9094,-4.9082,-4.9103,-4.9105,-4.9119,-4.9103,-4.9052,-4.905,-4.9049,-4.9047,0,-4.9076,-4.9028,-4.9139,-4.9117,-4.9113,-4.9198,-4.9179,-4.924,-4.9209,-4.9289,-4.9303,-4.9257,-4.9314,-4.9264,-4.932,-4.9292,-4.9431,-4.9396,-4.9429,-4.9419,-4.9531,-4.9521,-4.9903,-4.9949,-4.9589,-4.9593,-4.9596,0,-4.9252,-4.9329,-4.9314,-4.9349,-4.9351,-4.9408,-4.9436,-4.9368,-4.9401,-4.9413,-4.9473,-4.9522,-4.9558,-4.9655,-4.9626,-4.9668,-4.9634,-4.9765,-4.964,-4.9657,-4.9635,-4.9632,-4.9639,-4.979,-4.9795,-4.9798,-4.9801,0,-4.9568,-4.954,-4.9583,-4.9619,-4.9654,-4.9679,-4.9696,-4.973,-4.966,-4.9701,-4.9758,-4.9786,-4.9842,-4.9892,-4.9924,-4.9921,-4.985,-4.984,-4.9868,-4.9889,-4.9904,-4.9897,-4.9498,-4.9832,-4.9829,-4.9827,-4.9825,-4.9824,-4.9805,-4.9869,-4.9867,-4.9918,-4.9924,-4.9942,-4.9997,-4.9974,-5.002,-5.0059,-5.0016,-5.0085,-5.0088,-5.0123,-5.0128,-5.0181,-5.0127,-5.0167,-5.0177,-5.0188,-5.0204,-4.9896,-5.0187,-5.0186,-5.0185,-5.0185,-5.0184,0,-5.0116,-5.011,-5.0157,-5.0184,-5.0224,-5.0152,-5.0167,-5.0205,-5.0267,-5.0275,-5.0312,-5.0376,-5.0424,-5.0399,-5.044,-5.0487,-5.0456,-5.05,-5.0496,-5.0496,-5.0251,-5.0223,-5.0525,-5.0525,-5.0525,-5.0525,-5.0525,-5.0525,-5.0283,-5.0386,-5.0358,-5.0463,-5.0455,-5.0521,-5.0536,-5.0552,-5.0558,-5.0634,-5.0673,-5.0655,-5.0649,-5.0689,-5.073,-5.072,-5.074,-5.0797,-5.0776,-5.0547,-5.0514,-5.0482,-5.0455,-5.0801,-5.0802,-5.1017,-5.1019,-5.1021]},{"header":{"parameterUnit":"m.s-1","parameterCategory":1,"la1":30.2991,"la2":30.254,"lo1":-89.0895,"lo2":-89.0444,"dy":0.0017,"dx":0.0017,"nx":28,"ny":28,"refTime":"2025-03-03T09:00:00:Z","depth":0,"parameterNumber":3,"parameterNumberName":"V-component_of_WINDS"},"data":[0,0,0,0,0,0,0,0,0,0,0,0,0,0,0,0,0,0,0,0,0,0,0,0,0,0,0,0,0,0,0,0,0,0,0,0,0,0,0,0,0,0,0,0,0,0,0,0,0,0,0,0,0,0,0,0,0,0,-2.5231,-2.5231,0,-2.5292,-2.5293,-2.5293,-2.5272,-2.527,-2.5269,-2.5268,-2.5329,-2.5332,-2.5335,0,0,0,0,0,0,0,0,0,0,0,0,0,-2.5092,-2.5095,-2.5231,-2.5231,-2.5232,-2.5292,-2.5293,-2.5294,-2.5272,-2.527,-2.5269,-2.5267,-2.5328,-2.5332,-2.5335,0,0,0,0,0,0,0,0,0,0,0,0,0,-2.5153,-2.5096,-2.523,-2.5229,-2.5229,-2.5292,-2.5293,-2.5294,-2.5272,-2.527,-2.5268,-2.5266,-2.5327,-2.5331,-2.5336,-2.5404,0,0,-2.5349,-2.5351,0,0,0,0,0,0,0,0,-2.5149,-2.5158,-2.5228,-2.5229,-2.5229,-2.5272,-2.5266,-2.5331,-2.5273,-2.5256,-2.5268,-2.5265,-2.5312,-2.5317,-2.5333,-2.5406,-2.5409,-2.5349,-2.5352,-2.5354,-2.5355,0,0,0,0,0,0,0,-2.5145,-2.5155,-2.5255,-2.5229,-2.523,-2.5224,-2.523,-2.5278,-2.5294,-2.5257,-2.5256,-2.5263,-2.5312,-2.5329,-2.5335,-2.541,-2.5349,-2.5353,-2.5356,-2.5358,-2.554,-2.5542,0,0,0,0,0,0,-2.5141,-2.5152,-2.5253,-2.5257,-2.5184,-2.5228,-2.5235,-2.526,-2.5294,-2.5297,-2.5265,-2.5262,-2.5323,-2.5329,-2.5337,-2.5417,-2.5354,-2.5358,-2.5361,-2.5537,-2.554,-2.5542,0,0,0,0,0,0,-2.5138,-2.515,-2.525,-2.5204,-2.5216,-2.5232,-2.5261,-2.5263,-2.528,-2.53,-2.5302,-2.528,-2.5321,-2.533,-2.5387,-2.5419,-2.536,-2.5364,-2.5535,-2.5538,-2.5541,-2.5579,0,0,0,0,0,0,-2.5134,-2.5149,-2.5176,-2.5205,-2.5219,-2.53,-2.5263,-2.5265,-2.5288,-2.5285,-2.5315,-2.5318,-2.532,-2.538,-2.5391,-2.5424,-2.5367,-2.5532,-2.5536,-2.554,-2.5575,-2.5583,-2.559,0,0,0,0,0,-2.5129,-2.5184,-2.5177,-2.519,-2.5253,-2.5302,-2.531,-2.5313,-2.5291,-2.5317,-2.5329,-2.5317,-2.5414,-2.5386,-2.5398,-2.5433,-2.553,-2.5535,-2.554,-2.5571,-2.5581,-2.559,0,0,0,0,0,0,-2.5159,-2.5188,-2.5181,-2.5247,-2.5272,-2.5299,-2.5332,-2.5324,-2.5356,-2.5351,-2.5352,-2.5359,-2.5417,-2.543,-2.5399,-2.5499,-2.5468,-2.5476,-2.5488,-2.5498,-2.5505,-2.55,-2.5371,0,0,0,0,0,-2.5173,-2.5212,-2.5235,-2.5291,-2.5304,-2.5316,-2.5338,-2.5337,-2.5363,-2.5374,-2.5391,-2.5416,-2.5452,-2.5476,-2.551,-2.5577,-2.5582,-2.5606,-2.5613,-2.562,-2.5626,-2.566,-2.5671,-2.5559,-2.5559,-2.5559,0,0,-2.5203,-2.5224,-2.5248,-2.5297,-2.5317,-2.5356,-2.5325,-2.5368,-2.5397,-2.538,-2.5434,-2.5447,-2.5475,-2.5537,-2.5564,-2.555,-2.5658,-2.5626,-2.5631,-2.5634,-2.5666,-2.5677,-2.5686,-2.5562,-2.5562,-2.5561,0,0,-2.5277,-2.5297,-2.5345,-2.5365,-2.5395,-2.5403,-2.5414,-2.5441,-2.5449,-2.5503,-2.5491,-2.5525,-2.5587,-2.5607,-2.5626,-2.5705,-2.5694,-2.5717,-2.5756,-2.579,-2.5798,-2.5806,-2.5833,-2.5843,-2.5723,-2.5723,-2.5723,0,-2.531,-2.5369,-2.5371,-2.5415,-2.5436,-2.5423,-2.547,-2.549,-2.5529,-2.5544,-2.5527,-2.5603,-2.5622,-2.5686,-2.5706,-2.5722,-2.5734,-2.5713,-2.5797,-2.5805,-2.5812,-2.5838,-2.5848,-2.5725,-2.5725,-2.5725,-2.5725,0,-2.5408,-2.5449,-2.5484,-2.5522,-2.5547,-2.5593,-2.56,-2.5625,-2.5622,-2.5631,-2.5685,-2.5706,-2.5744,-2.5759,-2.5757,-2.5823,-2.5813,-2.5797,-2.5766,-2.5825,-2.5849,-2.5859,-2.5729,-2.5728,-2.5727,-2.5727,0,0,-2.5503,-2.5541,-2.5553,-2.557,-2.5601,-2.5632,-2.5676,-2.5713,-2.5734,-2.5761,-2.5797,-2.5849,-2.5834,-2.5855,-2.5854,-2.5884,-2.5943,-2.5864,-2.5864,-2.5877,-2.6016,-2.6027,-2.6039,-2.5936,-2.5938,-2.594,-2.6013,0,-2.5579,-2.5657,-2.5659,-2.5729,-2.5766,-2.5753,-2.5791,-2.5814,-2.5823,-2.5855,-2.5864,-2.5901,-2.5878,-2.5891,-2.5919,-2.593,-2.5971,-2.5925,-2.5969,-2.597,-2.5961,-2.6052,-2.6064,-2.6132,-2.6023,-2.6024,-2.6025,0,-2.5678,-2.5708,-2.5782,-2.5806,-2.5822,-2.5856,-2.5889,-2.592,-2.5944,-2.5949,-2.5971,-2.5966,-2.6009,-2.5977,-2.6036,-2.6005,-2.6023,-2.6031,-2.6033,-2.6037,-2.6001,-2.6056,-2.6154,-2.6164,-2.604,-2.6039,-2.6038,0,-2.5738,-2.5797,-2.5849,-2.5863,-2.5893,-2.5917,-2.5931,-2.5954,-2.5975,-2.6003,-2.6017,-2.605,-2.6068,-2.6093,-2.6096,-2.6073,-2.6155,-2.6124,-2.6159,-2.6159,-2.6176,-2.6175,-2.6277,-2.619,-2.6189,-2.6189,-2.6189,0,-2.5822,-2.5867,-2.5876,-2.5908,-2.5958,-2.5959,-2.6008,-2.602,-2.604,-2.6073,-2.6064,-2.6094,-2.6097,-2.6129,-2.6132,-2.6179,-2.6188,-2.6191,-2.6191,-2.6192,-2.6191,-2.6203,-2.6198,-2.6192,-2.6191,-2.6191,-2.619,0,-2.5897,-2.5905,-2.596,-2.5984,-2.5991,-2.6027,-2.6046,-2.6076,-2.6083,-2.6125,-2.6134,-2.6146,-2.6182,-2.6188,-2.6231,-2.6232,-2.6289,-2.6285,-2.6281,-2.628,-2.6314,-2.631,-2.6427,-2.6441,-2.6345,-2.6346,-2.6347,0,-2.595,-2.5985,-2.6012,-2.6033,-2.6048,-2.6082,-2.6104,-2.6106,-2.6128,-2.6158,-2.6184,-2.6219,-2.6247,-2.6306,-2.6317,-2.6349,-2.6345,-2.6384,-2.635,-2.6348,-2.6344,-2.6342,-2.6344,-2.639,-2.6391,-2.6392,-2.6392,0,-2.6042,-2.6044,-2.6075,-2.6108,-2.6133,-2.6159,-2.6183,-2.6201,-2.6206,-2.6231,-2.6268,-2.629,-2.6333,-2.6368,-2.6399,-2.6412,-2.6403,-2.6403,-2.6412,-2.6413,-2.6408,-2.641,-2.6297,-2.64,-2.6399,-2.6399,-2.6398,-2.6398,-2.6107,-2.6136,-2.6159,-2.6194,-2.6213,-2.6235,-2.6263,-2.6274,-2.6305,-2.634,-2.6339,-2.6379,-2.6401,-2.6443,-2.6458,-2.6488,-2.6476,-2.649,-2.6493,-2.6496,-2.6499,-2.6404,-2.6494,-2.6494,-2.6494,-2.6493,-2.6493,0,-2.6197,-2.6211,-2.6243,-2.6277,-2.6304,-2.6293,-2.6318,-2.6341,-2.6377,-2.6398,-2.6426,-2.6467,-2.6501,-2.6514,-2.6547,-2.6568,-2.6565,-2.6577,-2.6575,-2.6577,-2.6509,-2.6497,-2.6579,-2.6579,-2.6579,-2.6579,-2.6579,-2.6579,-2.6247,-2.6296,-2.63,-2.6357,-2.6371,-2.641,-2.6425,-2.6445,-2.6462,-2.6509,-2.6536,-2.6545,-2.6563,-2.6596,-2.6626,-2.6629,-2.664,-2.6654,-2.6655,-2.6591,-2.6582,-2.6574,-2.6563,-2.6657,-2.6657,-2.672,-2.6721,-2.6721]}]]